This demonstration page uses our WeatherBlox Daily Observations layout. Learn more.

Left ArrowRight Arrow

41.86663, -103.66717

Hourly Observations for September 26, 2020

Temp ( °F °C ) Dew Point ( °F °C ) Humidity (%) Winds ( mph kmh ) Pressure ( in mb ) Visibility ( mi km ) Precip ( " mm )
12:53 am 00:53 Clear 60 15.6 41 5 50 50 E 5 7 29.7 1006 10 16.0934 0 0
1:53 am 01:53 Clear 72 22.2 32 0 23 23 WSW 10 17 29.65 1004 10 16.0934 0 0
2:53 am 02:53 Clear 76 24.4 26 -3.3 16 16 W 15 24 29.62 1003 10 16.0934 0 0
3:53 am 03:53 Clear 75 23.9 25 -3.9 15 15 W 13 20 29.62 1003 10 16.0934 0 0
4:53 am 04:53 Clear 66 18.9 27 -2.8 23 23 NW 8 13 29.64 1004 10 16.0934 0 0
5:53 am 05:53 Clear 70 21.1 26 -3.3 19 19 NW 10 17 29.65 1004 10 16.0934 0 0
6:53 am 06:53 Sunny 65 18.3 27 -2.8 24 24 NW 3 6 29.66 1004 10 16.0934 0 0
7:53 am 07:53 Sunny 67 19.4 30 -1.1 25 25 WNW 5 7 29.66 1004 10 16.0934 0 0
8:53 am 08:53 Sunny 79 26.1 28 -2.2 15 15 W 18 30 29.62 1003 10 16.0934 0 0
9:53 am 09:53 Sunny 80 26.7 33 0.6 18 18 WSW 21 33 29.62 1003 10 16.0934 0 0
10:53 am 10:53 Sunny 83 28.3 33 0.6 17 17 W 25 41 29.62 1003 10 16.0934 0 0
11:53 am 11:53 Sunny 85 29.4 36 2.2 17 17 W 15 24 29.6 1003 10 16.0934 0 0
12:53 pm 12:53 Partly Cloudy 84 28.9 38 3.3 19 19 W 23 37 29.62 1003 10 16.0934 0 0
1:53 pm 13:53 Partly Cloudy 83 28.3 38 3.3 20 20 NW 22 35 29.6 1002 10 16.0934 0 0
2:06 pm 14:06 Partly Cloudy 80 26.7 38 3.3 22 22 N 26 43 29.49 999 10 16.0934 0 0
2:53 pm 14:53 Sunny 79 26.1 39 3.9 24 24 N 18 30 29.63 1003 10 16.0934 0 0
3:53 pm 15:53 Sunny 70 21.1 41 5 35 35 N 18 30 29.69 1005 10 16.0934 0 0
4:53 pm 16:53 Sunny 70 21.1 41 5 35 35 N 18 30 29.73 1007 10 16.0934 0 0
5:53 pm 17:53 Mostly Sunny 65 18.3 40 4.4 40 40 N 15 24 29.77 1008 10 16.0934 0 0
6:53 pm 18:53 Clear 62 16.7 40 4.4 44 44 NNE 7 11 29.79 1009 10 16.0934 0 0
7:53 pm 19:53 Clear 59 15 40 4.4 49 49 NNE 3 6 29.8 1009 10 16.0934 0 0
8:53 pm 20:53 Mostly Clear 57 13.9 40 4.4 53 53 N 6 9 29.8 1009 10 16.0934 0 0
9:53 pm 21:53 Clear 53 11.7 40 4.4 61 61 NNE 3 6 29.82 1010 10 16.0934 0 0
10:53 pm 22:53 Mostly Clear 54 12.2 40 4.4 59 59 Calm 29.83 1010 10 16.0934 0 0
11:53 pm 23:53 Clear 53 11.7 40 4.4 61 61 S 5 7 29.84 1011 10 16.0934 0 0

Powered by AerisWeather